STARLINK-1837 (47128 NORAD) Tracking and Keplerian Element Data

This shows tracking and keplerian element data for the satellite.

Feedback or suggestion? Click here.




ElementValue
Catalog47128
NameSTARLINK-1837
Epoch Orbit177
Epoch Day15.91667824
Epoch Year2021
RAAN98.5997
Inclination53.056
Eccentricity0.0002033
Argument of Perigee32.722
Mean Anonmoly349.9633
Mean Motion15.62795233
Decay Rate-8.493E-05
L11 47128U 20088G 21015.91667824 -.00008493 00000-0 -86854-4 0 9993
L22 47128 53.0560 98.5997 0002033 32.7220 349.9633 15.62795233 1779

Live tracking and technical data element details for STARLINK-1837 (NORAD 47128). STARLINK-1837 can be tracked NOW for your location showing map with azimuth and elevation plus other details from your city location.

Track the satellite on the map from your city or location and see movement details for azimuth, elevation, latitude, longitude, range, height, and movement on the map or in text.







IsCatalogInMostPopularTable: catalog: 47128, numindb: 12
Update: records affected: 1



GetName: 47128 STARLINK-1837

Hit Count: updated at: Sun, 17 Jan 2021 10:28:15 GMT